Location: Rio Negrinho
(26.2394°S, 49.4999°W)
Time: 13:29:17
(UTC+00:00)

N. Korean satellite - Pass Details

Date: 06 August 2021
Orbit: 448 x 499 km, 97.3° (Epoch: 16 September)

Event Time Altitude Azimuth Distance (km) Brightness Sun altitude
Rises 08:13:13 0° 1° (N) 2,443 10.2 -22.8°
Reaches altitude 10° 08:15:16 10° 355° (N) 1,577 9.2 -22.3°
Enters shadow 08:15:21 11° 355° (N) 1,546 9.1 -22.3°
